• Processing (Info)

  • MPEC 2020-K59 : 2020 KW

    The following Minor Planet Electronic Circular may be linked-to from your own Web pages, but must not otherwise be redistributed electronically.

    A form allowing access to any MPEC is at the bottom of this page.


    Read MPEC 2020-K58 Read MPEC 2020-K60


    M.P.E.C. 2020-K59                                  Issued 2020 May 19, 00:46 UT
    
         The Minor Planet Electronic Circulars contain information on unusual
             minor planets and routine data on comets.  They are published
        on behalf of Division F of the International Astronomical Union by the
              Minor Planet Center, Smithsonian Astrophysical Observatory,
                              Cambridge, MA 02138, U.S.A.
    
                 Prepared using the Tamkin Foundation Computer Network
    
                                  MPC@CFA.HARVARD.EDU
                URL https://www.minorplanetcenter.net/    ISSN 1523-6714
    
                                     2020 KW                                 
    
    
    Observations:
         K20K00W* C2020 05 18.24696316 05 49.62 +16 07 29.8          17.77gUEK059I41
         K20K00W  C2020 05 18.24730916 05 55.17 +16 07 16.6          17.77gUEK059I41
         K20K00W  C2020 05 18.31510416 23 40.62 +15 20 46.2                UEK059I41
         K20K00W  C2020 05 18.31545016 23 45.72 +15 20 31.6                UEK059I41
         K20K00W  C2020 05 18.33745416 29 16.78 +15 04 28.7          17.09RUEK059I41
         K20K00W  C2020 05 18.33780116 29 21.91 +15 04 13.8          17.09RUEK059I41
         K20K00W  C2020 05 18.40641516 45 47.09 +14 12 04.4                UEK059I41
         K20K00W  C2020 05 18.40676216 45 51.71 +14 11 49.1                UEK059I41
         K20K00W  C2020 05 18.90281 18 17 30.61 +08 17 28.4          18.9 GVEK059246
         K20K00W  C2020 05 18.90309 18 17 32.59 +08 17 17.5          18.6 GVEK059246
         K20K00W  C2020 05 18.90318 18 17 33.37 +08 17 15.2          18.6 GVEK059246
         K20K00W  C2020 05 18.90328 18 17 34.07 +08 17 12.8          18.4 GVEK059246
         K20K00W  C2020 05 18.90337 18 17 34.71 +08 17 10.1                VEK059246
         K20K00W  C2020 05 18.90355 18 17 36.03 +08 17 03.1                VEK059246
         K20K00W  C2020 05 18.90365 18 17 36.77 +08 17 00.1                VEK059246
         K20K00W  C2020 05 18.90374 18 17 37.50 +08 16 57.0          18.7 GVEK059246
         K20K00W  C2020 05 18.90383 18 17 38.11 +08 16 54.0          18.6 GVEK059246
         K20K00W  C2020 05 18.90970 18 18 21.48 +08 13 40.1                VEK059246
         K20K00W  C2020 05 18.90979 18 18 22.17 +08 13 37.5          19.1 GVEK059246
         K20K00W  C2020 05 18.90988 18 18 22.84 +08 13 35.3          19.3 GVEK059246
         K20K00W  C2020 05 18.91007 18 18 24.23 +08 13 28.5                VEK059246
         K20K00W  C2020 05 18.91072 18 18 27.97 +08 12 13.8          18.4 VVEK059033
         K20K00W  C2020 05 18.91095 18 18 29.66 +08 12 06.5          18.6 VVEK059033
         K20K00W  C2020 05 18.91117 18 18 31.28 +08 11 58.9          18.6 VVEK059033
    
    Observer details:
    033 Karl Schwarzschild Observatory, Tautenburg.  Observers S. Melnikov, B. 
       Stecklum.  Measurer B. Stecklum.  1.34-m f/3 Schmidt + CCD.
    246 Klet Observatory-KLENOT.  Observers M. Tichy, J. Ticha, M. Honkova.  
        Measurer M. Tichy.  1.06-m f/2.7 reflector + 2048x2048 CCD.
    I41 Palomar Mountain--ZTF.  Observers B. T. Bolin, K. P. Deshmukh, J. Purdum, 
       J. Southworth, Z. T. F. Collaboration.  Measurers B. T. Bolin, C. M. 
       Copperwheat, D. A. Duev, H.-W. Lin, F. J. Masci, Q.-Z. Ye.  1.2-m f/2.4 
       Schmidt.
    
    Orbital elements:
    2020 KW                                                  Earth MOID = 0.0012 AU
    Epoch 2020 May 31.0 TT = JDT 2459000.5                  Veres
    M   6.59875              (2000.0)            P               Q
    n   0.33524009     Peri.  354.71502     -0.65269115     +0.75693343
    a   2.0522586      Node   234.53570     -0.69364348     -0.61419712
    e   0.5074512      Incl.    2.27580     -0.30471787     -0.22318978
    P   2.94           H   28.6           G   0.15           U   7
    Residuals in seconds of arc
    200518 I41  0.3+  0.5-    200518 246  0.5+  0.6+    200518 246  0.6-  0.1-
    200518 I41  0.6-  0.3-    200518 246  1.0-  1.0-    200518 246  0.1+  0.6-
    200518 I41  0.0   0.1-    200518 246  0.7+  0.3-    200518 246  0.6+  0.2-
    200518 I41 (2.3-  0.3+)   200518 246  0.0   0.6+    200518 246  0.7+  0.5+
    200518 I41  0.5+  0.4+    200518 246  0.4-  0.8+    200518 246  0.6+  0.0
    200518 I41  0.1+  0.9+    200518 246  0.6-  0.2-    200518 033  0.1-  0.1-
    200518 I41  0.3-  0.3-    200518 246  0.6-  0.1+    200518 033  0.1-  0.1+
    200518 I41 (3.0-  0.5+)   200518 246  0.3+  0.0     200518 033  0.1-  0.3-
    
    Ephemeris:
    2020 KW                  a,e,i = 2.05, 0.51, 2                   q = 1.0108
    Date    TT    R. A. (2000) Decl.     Delta      r    Elong.  Phase     V
    2020 04 19    09 00 42.5 +04 30 08   0.1142  1.0431   106.8    67.2    26.3
    ...
    2020 05 04    09 04 50.4 +05 14 09   0.05698 1.0132    93.3    83.5    25.3
    ...
    2020 05 12    09 21 26.4 +06 32 55   0.02489 1.0102    89.2    89.4    23.8
    ...
    2020 05 18    14 50 09.1 +18 26 46   0.0032361.0140   140.1    39.8    17.8
    2020 05 19    18 28 00.7 +07 45 38   0.0051031.0151   131.1    48.7    19.0
    2020 05 20    19 35 08.3 +02 17 20   0.0086681.0163   120.0    59.6    20.5
    ...
    2020 05 26    20 36 30.2 -03 05 31   0.03265 1.0265   113.4    65.0    23.5
    ...
    2020 06 03    20 45 10.5 -04 15 45   0.06491 1.0475   119.2    57.7    24.8
    ...
    2020 06 18    20 41 50.2 -05 41 35   0.1253  1.1073   134.3    41.0    25.9
    
    M. P. C. Staff               (C) Copyright 2020 MPC           M.P.E.C. 2020-K59
    


    Read MPEC 2020-K58 Read MPEC 2020-K60


    MPEC number:

    Enter an MPEC number in one of the following forms:

    • 1997-B01 (the full form)
    • J97B01 (the packed version of the full form)
    • B01 (the abbreviated form)